Voltar ao catálogo

STARLINK-36169

AtivoComunicaçõesVLEO
NORAD 66929·PAYLOAD·🇺🇸 United States

Lançado Dec 7, 2025 de Vandenberg Space Force Base

Loading…

Próximas Passagens (próximas 24 horas)

TLE

AtualizadoSource: CelesTrak SupGP

Época: Sep 14, 2026, 20:45 UTC

1 66929C 25286E   26257.86506944  .00026222  00000+0  77441-3 0  2575
2 66929  53.1573 195.8150 0001033 106.6212 334.0568 15.34390756    15

Acompanhe STARLINK-36169 em tempo real com AllMySat

Download on the App Store